GW1804 Weather Reports


time (UTC)temp
F
wind
direction
speed
knots
gust
knots
rain 1hr
in
rain 24hr
in
rain mn
in
humidity
%
barometer
mb
20260902093051 65 0 0.0 0.0 0.00 0.00 0.00 88 1015.8
20260902092531 65 0 0.0 0.0 0.00 0.00 0.00 88 1015.8
20260902092035 65 0 0.0 0.0 0.00 0.00 0.00 88 1015.9
20260902091556 65 0 0.0 0.0 0.00 0.00 0.00 88 1016.0
20260902091035 65 0 0.0 0.0 0.00 0.00 0.00 87 1016.0
20260902090535 66 0 0.0 0.0 0.00 0.00 0.00 87 1016.0
20260902090057 66 0 0.0 0.0 0.00 0.00 0.00 87 1016.1
20260902085534 66 0 0.0 0.0 0.00 0.00 0.00 87 1016.1
20260902085034 66 0 0.0 0.0 0.00 0.00 0.00 87 1016.1
20260902084556 66 0 0.0 0.0 0.00 0.00 0.00 87 1016.1
20260902084035 66 0 0.0 0.0 0.00 0.00 0.00 87 1016.2
20260902083536 66 0 0.0 0.0 0.00 0.00 0.00 87 1016.2
20260902083055 66 0 0.0 0.0 0.00 0.00 0.00 87 1016.1
20260902082531 66 0 0.0 0.0 0.00 0.00 0.00 87 1016.0
20260902082035 66 0 0.0 0.0 0.00 0.00 0.00 86 1016.0
20260902081557 66 0 0.0 0.0 0.00 0.00 0.00 86 1016.1
20260902081031 66 0 0.0 0.9 0.00 0.00 0.00 86 1016.1
20260902080535 66 0 0.0 0.9 0.00 0.00 0.00 86 1016.0
20260902080054 66 0 0.0 0.9 0.00 0.00 0.00 86 1016.1
20260902075534 67 0 0.0 0.0 0.00 0.00 0.00 86 1016.1
20260902075035 67 0 0.0 0.0 0.00 0.00 0.00 86 1016.1
20260902074551 67 0 0.0 0.0 0.00 0.00 0.00 86 1016.1
20260902074034 67 0 0.0 0.0 0.00 0.00 0.00 86 1016.0
20260902073534 67 0 0.0 0.0 0.00 0.00 0.00 86 1015.9
20260902073051 67 0 0.0 0.0 0.00 0.00 0.00 86 1016.0
20260902072538 67 0 0.0 0.0 0.00 0.00 0.00 86 1015.9
20260902072036 67 0 0.0 0.0 0.00 0.00 0.00 86 1015.9
20260902071558 67 0 0.0 0.0 0.00 0.00 0.00 86 1015.9
20260902071031 67 0 0.0 0.0 0.00 0.00 0.00 86 1015.8
20260902070532 67 0 0.0 0.0 0.00 0.00 0.00 86 1015.9
20260902070100 68 0 0.0 0.0 0.00 0.00 0.00 86 1015.8
20260902065537 68 0 0.0 0.0 0.00 0.00 0.00 86 1015.8
20260902065035 68 0 0.0 0.9 0.00 0.00 0.00 86 1015.8
20260902064604 68 0 0.0 0.9 0.00 0.00 0.00 86 1015.7
20260902064037 68 0 0.0 0.9 0.00 0.00 0.00 86 1015.7
20260902063534 68 0 0.0 0.9 0.00 0.00 0.00 86 1015.7
20260902063104 68 0 0.0 0.9 0.00 0.00 0.00 86 1015.6
20260902062536 68 0 0.0 1.7 0.00 0.00 0.00 86 1015.7
20260902062032 68 5 0.0 1.7 0.00 0.00 0.00 86 1015.7
20260902061622 68 0 0.0 0.9 0.00 0.00 0.00 86 1015.6
20260902061036 68 350 0.0 0.9 0.00 0.00 0.00 86 1015.6
20260902060531 68 0 0.0 0.9 0.00 0.00 0.00 86 1015.6
20260902060058 68 0 0.0 0.9 0.00 0.00 0.00 86 1015.6
20260902055533 68 0 0.0 0.9 0.00 0.00 0.00 87 1015.6
20260902055035 68 0 0.0 0.9 0.00 0.00 0.00 87 1015.6
20260902054554 68 0 0.0 0.9 0.00 0.00 0.00 87 1015.5
20260902054031 68 0 0.0 0.9 0.00 0.00 0.00 86 1015.6
20260902053532 68 0 0.0 0.9 0.00 0.00 0.00 86 1015.6
20260902053052 68 0 0.0 0.9 0.00 0.00 0.00 86 1015.6
20260902052532 69 0 0.0 0.0 0.00 0.00 0.00 86 1015.6
20260902052032 69 0 0.0 0.0 0.00 0.00 0.00 86 1015.7
20260902051614 69 0 0.0 0.0 0.00 0.00 0.00 86 1015.7
20260902051031 69 0 0.0 0.0 0.00 0.00 0.00 86 1015.7
20260902050531 69 0 0.0 0.9 0.00 0.00 0.00 86 1015.6
20260902050057 69 0 0.0 0.9 0.00 0.00 0.00 86 1015.7
20260902045534 69 0 0.0 0.9 0.00 0.00 0.00 86 1015.7
20260902045035 69 0 0.0 0.9 0.00 0.00 0.00 86 1015.7
20260902044607 69 0 0.0 0.9 0.00 0.00 0.00 86 1015.6
20260902044032 69 0 0.0 0.9 0.00 0.00 0.00 86 1015.6
20260902043534 69 0 0.0 0.9 0.00 0.00 0.00 86 1015.5
20260902043051 69 0 0.0 0.9 0.00 0.00 0.00 86 1015.4
20260902042535 69 0 0.0 1.7 0.00 0.00 0.00 86 1015.4
20260902042034 69 0 0.0 1.7 0.00 0.00 0.00 86 1015.2
20260902041604 69 0 0.0 0.9 0.00 0.00 0.00 86 1015.1
20260902041034 69 0 0.0 0.9 0.00 0.00 0.00 86 1015.0
20260902040534 69 0 0.0 0.9 0.00 0.00 0.00 85 1015.0
20260902040058 69 0 0.0 0.9 0.00 0.00 0.00 85 1014.8
20260902035530 69 0 0.0 2.6 0.00 0.00 0.00 85 1014.6
20260902035034 69 0 0.0 2.6 0.00 0.00 0.00 85 1014.6
20260902034604 70 308 0.0 2.6 0.00 0.00 0.00 86 1014.5
20260902034032 70 308 0.0 2.6 0.00 0.00 0.00 85 1014.4
20260902033534 70 0 0.0 2.6 0.00 0.00 0.00 85 1014.3
20260902033051 70 0 0.0 3.5 0.00 0.00 0.00 85 1014.2
20260902032535 70 305 0.9 3.5 0.00 0.00 0.00 85 1014.1
20260902032033 70 305 0.9 2.6 0.00 0.00 0.00 85 1014.1
20260902031617 70 254 0.0 2.6 0.00 0.00 0.00 84 1014.1
20260902031031 70 0 0.0 2.6 0.00 0.00 0.00 84 1014.1
20260902030534 70 315 0.0 2.6 0.00 0.00 0.00 83 1014.1
20260902030057 70 0 0.0 2.6 0.00 0.00 0.00 83 1014.1
20260902025535 70 296 0.9 2.6 0.00 0.00 0.00 83 1014.0
20260902025034 70 294 0.0 2.6 0.00 0.00 0.00 82 1014.0
20260902024559 70 311 0.9 3.5 0.00 0.00 0.00 82 1014.0
20260902024031 70 308 0.9 3.5 0.00 0.00 0.00 81 1013.9
20260902023531 71 305 0.9 3.5 0.00 0.00 0.00 81 1013.9
20260902023104 71 287 0.9 3.5 0.00 0.00 0.00 81 1013.9
20260902022532 71 265 1.7 3.5 0.00 0.00 0.00 81 1013.9
20260902022031 71 298 1.7 2.6 0.00 0.00 0.00 81 1013.9
20260902021600 72 263 0.9 3.5 0.00 0.00 0.00 81 1014.0
20260902021034 72 284 0.9 3.5 0.00 0.00 0.00 81 1014.1
20260902020535 72 248 1.7 6.1 0.00 0.00 0.00 80 1014.1
20260902020053 73 306 1.7 6.1 0.00 0.00 0.00 80 1014.0
20260902015531 73 253 1.7 4.3 0.00 0.00 0.00 79 1014.1
20260902015031 73 278 1.7 4.3 0.00 0.00 0.00 79 1014.1
20260902014552 73 261 0.9 5.2 0.00 0.00 0.00 78 1014.1
20260902014037 73 265 2.6 5.2 0.00 0.00 0.00 77 1014.1
20260902013534 74 248 1.7 6.1 0.00 0.00 0.00 77 1014.0
20260902013105 74 287 1.7 7.0 0.00 0.00 0.00 76 1014.0
20260902012533 74 298 2.6 7.0 0.00 0.00 0.00 75 1014.0
20260902012032 74 318 2.6 7.0 0.00 0.00 0.00 75 1014.0
20260902011555 74 271 2.6 7.0 0.00 0.00 0.00 75 1014.0
20260902011034 74 288 1.7 6.1 0.00 0.00 0.00 75 1014.0
20260902010532 74 275 2.6 7.0 0.00 0.00 0.00 75 1014.0
20260902010059 75 308 1.7 7.0 0.00 0.00 0.00 75 1014.0
20260902005532 75 304 2.6 7.0 0.00 0.00 0.00 74 1014.0
20260902005032 75 274 2.6 7.0 0.00 0.00 0.00 74 1014.0
20260902004552 75 241 3.5 7.0 0.00 0.00 0.00 73 1014.1
20260902004032 75 300 1.7 7.0 0.00 0.00 0.00 73 1014.1
20260902003531 75 325 2.6 7.0 0.00 0.00 0.00 73 1014.1
20260902003102 75 302 2.6 7.0 0.00 0.00 0.00 73 1014.0
20260902002532 75 302 1.7 7.8 0.00 0.00 0.00 73 1014.0
20260902002031 75 307 2.6 7.8 0.00 0.00 0.00 74 1014.0
20260902001554 75 280 3.5 7.8 0.00 0.00 0.00 74 1014.0
20260902001032 75 316 2.6 7.8 0.00 0.00 0.00 75 1013.9
20260902000532 75 278 2.6 9.6 0.00 0.00 0.00 75 1014.0
20260902000055 75 300 4.3 9.6 0.00 0.00 0.00 74 1014.0
20260901235532 75 287 3.5 8.7 0.00 0.00 0.00 74 1014.0
20260901235034 75 312 3.5 8.7 0.00 0.00 0.00 75 1014.2
20260901234550 75 273 4.3 8.7 0.00 0.00 0.00 75 1014.2
20260901234032 75 252 3.5 7.8 0.00 0.00 0.00 75 1014.3
20260901233531 75 265 4.3 9.6 0.00 0.00 0.00 75 1014.4
20260901233104 75 315 4.3 9.6 0.00 0.00 0.00 75 1014.4
20260901232536 75 346 4.3 9.6 0.00 0.00 0.00 75 1014.5
20260901232032 75 243 4.3 9.6 0.00 0.00 0.00 75 1014.3
20260901231607 75 327 5.2 10.4 0.00 0.00 0.00 75 1014.3
20260901231031 75 217 4.3 10.4 0.00 0.00 0.00 75 1014.3
20260901230532 75 274 6.1 10.4 0.00 0.00 0.00 74 1014.3
20260901230105 75 304 3.5 9.6 0.00 0.00 0.00 75 1014.4
20260901225531 75 244 4.3 9.6 0.00 0.00 0.00 75 1014.3
20260901225031 75 237 5.2 9.6 0.00 0.00 0.00 75 1014.5
20260901224551 75 308 4.3 9.6 0.00 0.00 0.00 75 1014.4
20260901224032 76 300 4.3 10.4 0.00 0.00 0.00 75 1014.5
20260901223532 76 272 5.2 10.4 0.00 0.00 0.00 75 1014.5
20260901223056 76 265 7.0 11.3 0.00 0.00 0.00 75 1014.6
20260901222533 76 331 4.3 11.3 0.00 0.00 0.00 75 1014.5
20260901222036 76 263 4.3 10.4 0.00 0.00 0.00 75 1014.5
20260901221610 76 281 5.2 11.3 0.00 0.00 0.00 76 1014.6
20260901221032 76 306 6.1 11.3 0.00 0.00 0.00 75 1014.6
20260901220532 76 300 5.2 11.3 0.00 0.00 0.00 75 1014.7
20260901220055 76 277 6.1 11.3 0.00 0.00 0.00 74 1014.7
20260901215535 77 243 5.2 11.3 0.00 0.00 0.00 74 1014.7
20260901215033 77 277 4.3 10.4 0.00 0.00 0.00 73 1014.8
20260901214551 77 317 4.3 10.4 0.00 0.00 0.00 73 1014.9
20260901214033 77 254 5.2 9.6 0.00 0.00 0.00 74 1014.9
20260901213537 77 296 4.3 9.6 0.00 0.00 0.00 74 1014.9
20260901213058 77 308 5.2 9.6 0.00 0.00 0.00 73 1014.9
20260901212536 77 267 5.2 9.6 0.00 0.00 0.00 72 1014.9
20260901212036 77 246 4.3 9.6 0.00 0.00 0.00 73 1015.0
20260901211557 77 315 5.2 9.6 0.00 0.00 0.00 72 1015.0
20260901211035 77 277 5.2 9.6 0.00 0.00 0.00 72 1015.0
20260901210534 77 300 4.3 9.6 0.00 0.00 0.00 72 1015.0
20260901205535 78 306 3.5 10.4 0.00 0.00 0.00 71 1015.0
20260901205036 78 304 3.5 8.7 0.00 0.00 0.00 72 1015.0
20260901204602 77 349 4.3 8.7 0.00 0.00 0.00 71 1015.1
20260901204032 77 309 4.3 8.7 0.00 0.00 0.00 71 1015.1
20260901203533 77 280 5.2 8.7 0.00 0.00 0.00 71 1015.0
20260901203059 77 271 2.6 8.7 0.00 0.00 0.00 71 1015.1
20260901202536 77 309 2.6 8.7 0.00 0.00 0.00 71 1015.0
20260901202037 77 284 5.2 9.6 0.00 0.00 0.00 72 1015.1
20260901201557 77 307 2.6 9.6 0.00 0.00 0.00 73 1015.2
20260901201037 77 315 4.3 9.6 0.00 0.00 0.00 73 1015.2
20260901200535 77 307 4.3 11.3 0.00 0.00 0.00 72 1015.2
20260901200052 76 272 4.3 11.3 0.00 0.00 0.00 72 1015.3
20260901195536 77 334 4.3 7.8 0.00 0.00 0.00 72 1015.3
20260901195038 77 333 4.3 8.7 0.00 0.00 0.00 73 1015.3
20260901194559 77 236 4.3 8.7 0.00 0.00 0.00 72 1015.4
20260901194036 77 300 3.5 7.8 0.00 0.00 0.00 72 1015.4
20260901193535 77 306 3.5 7.0 0.00 0.00 0.00 74 1015.5
20260901193100 77 251 4.3 7.0 0.00 0.00 0.00 72 1015.5
20260901192537 76 293 3.5 7.0 0.00 0.00 0.00 72 1015.6
20260901192036 76 322 3.5 7.0 0.00 0.00 0.00 72 1015.6
20260901191556 76 245 3.5 7.0 0.00 0.00 0.00 73 1015.6
20260901191035 76 290 3.5 7.8 0.00 0.00 0.00 73 1015.6
20260901190536 76 296 4.3 9.6 0.00 0.00 0.00 73 1015.6
20260901190051 76 299 4.3 9.6 0.00 0.00 0.00 74 1015.7
20260901185536 76 279 3.5 7.8 0.00 0.00 0.00 74 1015.7
20260901185033 76 306 2.6 7.8 0.00 0.00 0.00 74 1015.7
20260901184605 75 238 2.6 7.8 0.00 0.00 0.00 74 1015.7
20260901184035 75 306 3.5 7.8 0.00 0.00 0.00 74 1015.7
20260901183537 75 290 2.6 7.8 0.00 0.00 0.00 74 1015.7
20260901183118 75 303 3.5 7.0 0.00 0.00 0.00 74 1015.8
20260901182533 75 244 3.5 7.0 0.00 0.00 0.00 75 1015.8
20260901182032 75 290 3.5 7.0 0.00 0.00 0.00 75 1015.8
20260901181554 75 259 2.6 6.1 0.00 0.00 0.00 76 1015.8
20260901181031 75 298 2.6 6.1 0.00 0.00 0.00 77 1015.8
20260901180536 75 292 2.6 7.0 0.00 0.00 0.00 76 1015.9
20260901180100 75 280 2.6 7.0 0.00 0.00 0.00 77 1015.9
20260901175533 74 261 1.7 7.0 0.00 0.00 0.00 78 1015.8
20260901175032 74 291 1.7 7.0 0.00 0.00 0.00 79 1015.7
20260901174558 74 280 1.7 7.0 0.00 0.00 0.00 79 1015.7
20260901174031 74 235 1.7 7.0 0.00 0.00 0.00 79 1015.7
20260901173531 73 41 2.6 7.0 0.00 0.00 0.00 79 1015.8
20260901173138 73 304 1.7 6.1 0.00 0.00 0.00 79 1015.7
20260901172533 73 277 2.6 6.1 0.00 0.00 0.00 80 1015.7
20260901172032 73 263 2.6 6.1 0.00 0.00 0.00 81 1015.7
20260901171604 73 292 1.7 5.2 0.00 0.00 0.00 81 1015.6
20260901171034 72 309 1.7 6.1 0.00 0.00 0.00 81 1015.7
20260901170532 72 290 1.7 6.1 0.00 0.00 0.00 82 1015.6
20260901170101 72 326 1.7 6.1 0.00 0.00 0.00 82 1015.6
20260901165535 71 273 1.7 5.2 0.00 0.00 0.00 83 1015.6
20260901165032 71 295 1.7 5.2 0.00 0.00 0.00 83 1015.5
20260901164553 71 302 0.9 5.2 0.00 0.00 0.00 83 1015.5
20260901164031 70 334 1.7 5.2 0.00 0.00 0.00 84 1015.5
20260901163531 70 254 0.9 5.2 0.00 0.00 0.00 84 1015.6
20260901163109 70 221 1.7 5.2 0.00 0.00 0.00 85 1015.6
20260901162532 70 349 0.9 5.2 0.00 0.00 0.00 85 1015.6
20260901162035 69 17 0.9 5.2 0.00 0.00 0.00 86 1015.6
20260901161606 69 15 0.0 3.5 0.00 0.00 0.00 87 1015.5
20260901161031 69 284 0.9 3.5 0.00 0.00 0.00 87 1015.4
20260901160532 69 0 1.7 4.3 0.00 0.00 0.00 87 1015.5
20260901160058 68 312 0.9 4.3 0.00 0.00 0.00 87 1015.4
20260901155532 68 309 0.9 3.5 0.00 0.00 0.00 88 1015.3
20260901155032 68 319 0.9 3.5 0.00 0.00 0.00 89 1015.4
20260901154554 68 0 0.0 3.5 0.00 0.00 0.00 90 1015.3
20260901154033 68 319 0.9 4.3 0.00 0.00 0.00 90 1015.3
20260901153533 68 290 1.7 4.3 0.00 0.00 0.00 91 1015.3
20260901153052 67 0 0.0 2.6 0.00 0.00 0.00 91 1015.2
20260901152534 67 19 0.9 2.6 0.00 0.00 0.00 91 1015.2
20260901152033 67 12 0.0 0.9 0.00 0.00 0.00 91 1015.2
20260901151602 67 0 0.0 0.9 0.00 0.00 0.00 91 1015.1
20260901151031 66 0 0.0 0.9 0.00 0.00 0.00 91 1015.0
20260901150532 66 0 0.0 0.9 0.00 0.00 0.00 91 1015.0
20260901150056 66 0 0.0 0.0 0.00 0.00 0.00 91 1015.0
20260901145533 66 0 0.0 0.9 0.00 0.00 0.00 91 1014.9
20260901145031 66 0 0.0 0.9 0.00 0.00 0.00 91 1015.0
20260901144553 66 0 0.0 0.9 0.00 0.00 0.00 91 1015.0
20260901144034 66 0 0.0 0.0 0.00 0.00 0.00 91 1014.9
20260901143531 65 0 0.0 0.0 0.00 0.00 0.00 91 1014.9
20260901143059 65 0 0.0 0.0 0.00 0.00 0.00 91 1014.9
20260901142533 65 0 0.0 0.0 0.00 0.00 0.00 91 1014.8
20260901142033 65 0 0.0 0.0 0.00 0.00 0.00 91 1014.9
20260901141604 65 0 0.0 0.0 0.00 0.00 0.00 90 1014.9
20260901141032 65 0 0.0 0.0 0.00 0.00 0.00 90 1014.9
20260901140531 65 0 0.0 0.0 0.00 0.00 0.00 90 1014.9
20260901140052 65 0 0.0 0.0 0.00 0.00 0.00 90 1014.8
20260901135532 65 0 0.0 0.0 0.00 0.00 0.00 90 1014.7
20260901135033 65 0 0.0 0.0 0.00 0.00 0.00 90 1014.6
20260901134553 65 0 0.0 0.0 0.00 0.00 0.00 90 1014.7
20260901134031 65 0 0.0 0.0 0.00 0.00 0.00 90 1014.5
20260901133536 65 0 0.0 0.0 0.00 0.00 0.00 90 1014.5
20260901133106 65 0 0.0 0.0 0.00 0.00 0.00 90 1014.3
20260901132532 65 0 0.0 0.0 0.00 0.00 0.00 89 1014.3
20260901132031 65 0 0.0 0.0 0.00 0.00 0.00 89 1014.3
20260901131557 65 0 0.0 0.0 0.00 0.00 0.00 89 1014.2
20260901131035 65 0 0.0 0.0 0.00 0.00 0.00 89 1014.2
20260901130532 65 0 0.0 0.0 0.00 0.00 0.00 89 1014.0
20260901130055 65 0 0.0 0.0 0.00 0.00 0.00 89 1014.1
20260901125531 65 0 0.0 0.0 0.00 0.00 0.00 89 1014.1
20260901125032 65 0 0.0 0.0 0.00 0.00 0.00 89 1014.0
20260901124552 65 0 0.0 0.0 0.00 0.00 0.00 89 1013.9
20260901124033 65 0 0.0 0.0 0.00 0.00 0.00 88 1013.8
20260901123532 66 0 0.0 0.0 0.00 0.00 0.00 89 1013.9
20260901123101 66 0 0.0 0.0 0.00 0.00 0.00 89 1013.9
20260901122531 66 0 0.0 0.0 0.00 0.00 0.00 89 1013.9
20260901122032 66 0 0.0 0.0 0.00 0.00 0.00 89 1013.8
20260901121559 66 0 0.0 0.0 0.00 0.00 0.00 89 1013.8
20260901121035 66 0 0.0 0.0 0.00 0.00 0.00 88 1013.8
20260901120535 66 0 0.0 0.0 0.00 0.00 0.00 88 1013.8
20260901120105 66 0 0.0 0.0 0.00 0.00 0.00 88 1013.8
20260901115531 66 0 0.0 0.0 0.00 0.00 0.00 88 1013.8
20260901115035 66 0 0.0 0.0 0.00 0.00 0.00 88 1013.8
20260901114551 66 0 0.0 0.0 0.00 0.00 0.00 88 1013.8
20260901114035 66 0 0.0 0.0 0.00 0.00 0.00 88 1013.9
20260901113535 67 0 0.0 0.0 0.00 0.00 0.00 88 1014.0
20260901113058 67 0 0.0 0.0 0.00 0.00 0.00 88 1014.0
20260901112535 67 0 0.0 0.9 0.00 0.00 0.00 88 1014.0
20260901112035 67 0 0.0 1.7 0.00 0.00 0.00 89 1014.0
20260901111559 67 38 0.0 1.7 0.00 0.00 0.00 89 1014.0
20260901111035 67 0 0.0 1.7 0.00 0.00 0.00 89 1014.0
20260901110531 67 0 0.0 1.7 0.00 0.00 0.00 89 1014.0
20260901110054 67 0 0.0 0.9 0.00 0.00 0.00 89 1014.0
20260901105535 67 0 0.0 0.9 0.00 0.00 0.00 89 1014.0
20260901105036 68 0 0.0 1.7 0.00 0.00 0.00 89 1014.1
20260901104602 68 0 0.0 1.7 0.00 0.00 0.00 89 1014.1
20260901104038 68 127 0.0 0.9 0.00 0.00 0.00 89 1014.1
20260901103536 68 0 0.0 0.9 0.00 0.00 0.00 89 1014.1
20260901103058 68 0 0.0 0.9 0.00 0.00 0.00 89 1014.0
20260901102535 68 0 0.0 0.9 0.00 0.00 0.00 89 1014.0
20260901102035 68 0 0.0 0.0 0.00 0.00 0.00 89 1014.0
20260901101605 68 0 0.0 0.0 0.00 0.00 0.00 89 1014.1
20260901101035 68 0 0.0 0.0 0.00 0.00 0.00 89 1014.1
20260901100538 68 0 0.0 0.0 0.00 0.00 0.00 89 1014.2
20260901100105 68 0 0.0 0.0 0.00 0.00 0.00 89 1014.2
20260901095534 68 0 0.0 0.0 0.00 0.00 0.00 89 1014.2
20260901095035 67 0 0.0 0.0 0.00 0.00 0.00 89 1014.3
20260901094555 67 0 0.0 0.0 0.00 0.00 0.00 89 1014.2
20260901094035 67 0 0.0 0.9 0.00 0.00 0.00 89 1014.3
20260901093539 67 0 0.0 0.9 0.00 0.00 0.00 89 1014.3